EA4LT-13 Weather Reports


time (UTC)temp
C
wind
direction
speed
KPH
gust
KPH
rain 1hr
cm
rain 24hr
cm
rain mn
cm
humidity
%
barometer
mb
20260508100207 16 202 4.8 17.7 0.00 0.00 0.00 51 1009.0
20260508094708 16 180 1.6 16.1 0.00 0.00 0.00 51 1009.0
20260508093207 15 338 9.7 17.7 0.00 0.00 0.00 52 1009.0
20260508091707 15 135 6.4 17.7 0.00 0.00 0.00 53 1008.7
20260508090207 15 112 1.6 14.5 0.00 0.00 0.00 55 1008.7
20260508084706 14 158 4.8 14.5 0.00 0.00 0.00 57 1008.7
20260508083208 15 180 4.8 12.9 0.00 0.00 0.00 54 1008.5
20260508081707 14 180 4.8 16.1 0.00 0.00 0.00 61 1008.5
20260508080206 13 225 4.8 9.7 0.00 0.00 0.00 66 1008.4
20260508074707 13 225 3.2 14.5 0.00 0.00 0.00 69 1008.7
20260508073207 12 202 3.2 9.7 0.00 0.00 0.00 75 1008.4
20260508071706 11 180 3.2 9.7 0.00 0.00 0.00 75 1008.2
20260508070206 12 270 4.8 9.7 0.00 0.00 0.00 72 1008.2
20260508064707 11 180 0.0 6.4 0.00 0.00 0.00 79 1008.0
20260508063206 10 158 3.2 9.7 0.00 0.00 0.00 80 1008.1
20260508061706 10 180 3.2 9.7 0.00 0.00 0.00 77 1007.8
20260508060207 10 202 3.2 9.7 0.00 0.00 0.00 76 1007.4
20260508054706 10 225 1.6 6.4 0.00 0.00 0.00 76 1007.4
20260508053207 10 225 1.6 9.7 0.00 0.00 0.00 76 1007.3
20260508051707 10 225 4.8 9.7 0.00 0.00 0.00 76 1007.2
20260508050205 11 202 4.8 6.4 0.00 0.00 0.00 75 1006.8
20260508044705 11 180 3.2 9.7 0.00 0.00 0.00 78 1006.9
20260508043205 11 202 1.6 6.4 0.00 0.00 0.00 78 1007.1
20260508041705 11 180 6.4 9.7 0.00 0.00 0.00 77 1007.0
20260508040206 11 202 4.8 9.7 0.00 0.00 0.00 76 1007.2
20260508034706 11 180 1.6 4.8 0.00 0.00 0.00 72 1007.3
20260508033205 12 202 1.6 4.8 0.00 0.00 0.00 69 1007.2
20260508031705 12 202 0.0 3.2 0.00 0.00 0.00 69 1007.0
20260508030204 12 202 0.0 4.8 0.00 0.00 0.00 68 1006.9
20260508024705 12 292 1.6 6.4 0.00 0.00 0.00 67 1007.2
20260508023204 12 270 4.8 9.7 0.00 0.00 0.00 68 1007.1
20260508021706 12 292 4.8 9.7 0.00 0.00 0.00 67 1007.2
20260508020206 12 292 6.4 12.9 0.00 0.00 0.00 67 1007.4
20260508014705 11 315 4.8 9.7 0.00 0.00 0.00 71 1007.4
20260508013204 11 315 3.2 6.4 0.00 0.00 0.00 72 1007.3
20260508011704 12 292 0.0 4.8 0.00 0.00 0.00 74 1007.7
20260508010205 11 315 0.0 4.8 0.00 0.00 0.00 76 1007.6
20260508004705 12 292 0.0 9.7 0.00 0.00 0.00 75 1007.5
20260508003204 12 315 4.8 9.7 0.00 0.00 0.00 74 1007.9
20260508001704 12 292 1.6 4.8 0.00 0.00 0.00 74 1008.1
20260508000205 12 292 3.2 6.4 0.00 0.00 0.00 74 1007.6
20260507234705 12 292 4.8 9.7 0.00 0.00 0.00 74 1007.9
20260507233204 12 315 6.4 16.1 0.00 0.00 0.00 73 1007.7
20260507231705 12 292 4.8 9.7 0.00 0.00 0.00 76 1007.9
20260507230204 12 315 4.8 9.7 0.00 0.00 0.00 75 1008.0
20260507224703 12 315 4.8 12.9 0.00 0.00 0.00 74 1007.9
20260507223204 12 292 8.0 20.9 0.00 0.00 0.00 73 1008.0
20260507221704 12 315 9.7 20.9 0.00 0.00 0.00 73 1008.2
20260507220204 13 315 9.7 19.3 0.00 0.00 0.00 73 1008.1
20260507214704 13 270 11.3 17.7 0.00 0.00 0.00 73 1008.3
20260507213204 13 315 11.3 19.3 0.00 0.00 0.00 73 1008.1
20260507211704 13 338 14.5 24.1 0.00 0.00 0.00 72 1008.3
20260507210204 13 315 14.5 24.1 0.00 0.00 0.00 71 1008.1
20260507204704 14 292 11.3 35.4 0.00 0.00 0.00 69 1008.0
20260507203204 15 292 12.9 24.1 0.00 0.00 0.00 66 1007.9
20260507201703 15 292 19.3 24.1 0.00 0.00 0.00 58 1007.5
20260507200204 16 270 4.8 16.1 0.00 0.00 0.00 54 1007.6
20260507194704 16 292 8.0 16.1 0.00 0.00 0.00 53 1007.3
20260507193203 16 270 4.8 9.7 0.00 0.00 0.00 53 1007.2
20260507191703 17 292 4.8 9.7 0.00 0.00 0.00 52 1006.9
20260507190202 17 270 6.4 17.7 0.00 0.00 0.00 51 1006.7
20260507184703 17 270 4.8 16.1 0.00 0.00 0.00 50 1006.9
20260507183203 18 292 4.8 16.1 0.00 0.00 0.00 48 1006.5
20260507181703 18 292 6.4 17.7 0.00 0.00 0.00 47 1006.2
20260507180203 19 315 6.4 17.7 0.00 0.00 0.00 47 1006.4
20260507174702 19 292 11.3 17.7 0.00 0.00 0.00 46 1006.4
20260507173203 20 248 9.7 17.7 0.00 0.00 0.00 44 1006.3
20260507171704 21 248 1.6 16.1 0.00 0.00 0.00 42 1006.3
20260507170203 20 180 3.2 12.9 0.00 0.00 0.00 42 1006.2
20260507164703 21 315 6.4 20.9 0.00 0.00 0.00 44 1006.2
20260507163202 21 180 8.0 19.3 0.00 0.00 0.00 42 1006.4
20260507161702 21 202 1.6 12.9 0.00 0.00 0.00 41 1006.3
20260507160202 21 202 8.0 19.3 0.00 0.00 0.00 42 1006.3
20260507154703 20 225 6.4 17.7 0.00 0.00 0.00 43 1006.4
20260507153202 21 112 4.8 20.9 0.00 0.00 0.00 41 1006.5
20260507151703 20 270 1.6 16.1 0.00 0.00 0.00 42 1006.5
20260507150201 21 158 4.8 17.7 0.00 0.00 0.00 39 1006.7
20260507144702 21 180 4.8 12.9 0.00 0.00 0.00 39 1007.0
20260507143201 20 158 8.0 16.1 0.00 0.00 0.00 41 1006.9
20260507141702 21 202 6.4 19.3 0.00 0.00 0.00 40 1007.1
20260507140203 21 180 6.4 17.7 0.00 0.00 0.00 39 1007.1
20260507134701 20 202 6.4 17.7 0.00 0.00 0.00 44 1007.3
20260507133201 20 292 3.2 20.9 0.00 0.00 0.00 43 1007.3
20260507131702 21 292 4.8 12.9 0.00 0.00 0.00 42 1007.4
20260507130201 21 292 4.8 17.7 0.00 0.00 0.00 43 1007.5
20260507124701 21 158 4.8 16.1 0.00 0.00 0.00 41 1007.5
20260507123202 20 202 9.7 20.9 0.00 0.00 0.00 44 1007.8
20260507121702 20 180 6.4 9.7 0.00 0.00 0.00 42 1008.1
20260507120202 18 180 6.4 9.7 0.00 0.00 0.00 48 1008.3
20260507114701 19 292 4.8 20.9 0.00 0.00 0.00 49 1008.1
20260507113200 20 225 9.7 19.3 0.00 0.00 0.00 48 1008.4
20260507111701 20 180 1.6 14.5 0.00 0.00 0.00 50 1008.4
20260507110201 18 225 4.8 17.7 0.00 0.00 0.00 55 1008.5
20260507104701 18 135 9.7 17.7 0.00 0.00 0.00 55 1008.6
20260507103200 19 180 4.8 17.7 0.00 0.00 0.00 51 1008.4
20260507101701 18 158 4.8 14.5 0.00 0.00 0.00 52 1008.3